TimeCDT,TemperatureF,Dew PointF,Humidity,Sea Level PressureIn,VisibilityMPH,Wind Direction,Wind SpeedMPH,Gust SpeedMPH,PrecipitationIn,Events,Conditions,WindDirDegrees,DateUTC
12:58 AM,82.8,73.0,72,30.02,10.0,SSW,10.4,-,N/A,,Clear,200,2013-06-26 05:58:00
1:58 AM,82.9,74.1,75,30.02,10.0,SSW,10.4,-,N/A,,Scattered Clouds,200,2013-06-26 06:58:00
2:03 AM,82.4,73.4,74,30.01,10.0,South,8.1,-,N/A,,Mostly Cloudy,190,2013-06-26 07:03:00
2:13 AM,84.2,73.4,70,30.00,10.0,SSW,8.1,-,N/A,,Scattered Clouds,200,2013-06-26 07:13:00
2:23 AM,82.4,73.4,74,30.00,10.0,SSW,10.4,-,N/A,,Mostly Cloudy,210,2013-06-26 07:23:00
2:28 AM,82.4,73.4,74,30.00,10.0,SSW,9.2,-,N/A,,Scattered Clouds,200,2013-06-26 07:28:00
2:43 AM,82.4,73.4,74,30.00,10.0,SSW,10.4,-,N/A,,Mostly Cloudy,210,2013-06-26 07:43:00
2:48 AM,82.4,73.4,74,30.00,10.0,SSW,11.5,-,N/A,,Mostly Cloudy,210,2013-06-26 07:48:00
2:58 AM,82.9,73.6,73,30.01,10.0,SSW,9.2,-,N/A,,Scattered Clouds,210,2013-06-26 07:58:00
3:58 AM,82.0,74.5,78,30.01,10.0,SSW,10.4,-,N/A,,Partly Cloudy,210,2013-06-26 08:58:00
4:43 AM,82.4,75.2,79,30.01,10.0,WSW,8.1,-,N/A,,Mostly Cloudy,240,2013-06-26 09:43:00
4:58 AM,82.2,75.9,81,30.02,10.0,WSW,8.1,-,N/A,,Mostly Cloudy,250,2013-06-26 09:58:00
5:03 AM,82.4,75.2,79,30.01,10.0,WSW,6.9,-,N/A,,Mostly Cloudy,250,2013-06-26 10:03:00
5:18 AM,82.4,75.2,79,30.01,10.0,WSW,8.1,-,N/A,,Mostly Cloudy,240,2013-06-26 10:18:00
5:58 AM,81.3,74.8,81,30.04,10.0,WSW,5.8,-,N/A,,Partly Cloudy,250,2013-06-26 10:58:00
6:58 AM,78.8,75.0,88,30.06,10.0,NNE,3.5,-,N/A,,Scattered Clouds,20,2013-06-26 11:58:00
7:58 AM,81.0,75.2,83,30.07,10.0,NNW,3.5,-,N/A,,Clear,340,2013-06-26 12:58:00
8:58 AM,85.3,75.6,73,30.08,10.0,Variable,1.2,-,N/A,,Partly Cloudy,0,2013-06-26 13:58:00
9:58 AM,88.0,72.1,59,30.08,10.0,Calm,Calm,-,N/A,,Scattered Clouds,0,2013-06-26 14:58:00
10:58 AM,88.9,72.5,58,30.09,10.0,Calm,Calm,-,N/A,,Partly Cloudy,0,2013-06-26 15:58:00
11:58 AM,88.3,75.0,65,30.07,10.0,SSW,6.9,-,N/A,,Scattered Clouds,210,2013-06-26 16:58:00
12:58 PM,89.2,74.8,62,30.06,10.0,South,9.2,-,N/A,,Scattered Clouds,180,2013-06-26 17:58:00
1:58 PM,89.6,75.2,62,30.04,10.0,South,11.5,-,N/A,,Clear,190,2013-06-26 18:58:00
2:58 PM,89.2,75.2,63,30.03,10.0,South,12.7,-,N/A,,Clear,190,2013-06-26 19:58:00
3:58 PM,88.7,74.8,63,30.01,10.0,South,12.7,-,N/A,,Clear,180,2013-06-26 20:58:00
4:58 PM,88.9,75.2,64,30.01,10.0,SSW,13.8,-,N/A,,Clear,200,2013-06-26 21:58:00
5:58 PM,86.7,75.2,68,29.99,10.0,SSW,12.7,-,N/A,,Partly Cloudy,200,2013-06-26 22:58:00
6:58 PM,86.7,76.1,71,29.99,10.0,SSW,9.2,-,N/A,,Partly Cloudy,200,2013-06-26 23:58:00
7:58 PM,84.7,75.2,73,29.99,10.0,SSW,10.4,-,N/A,,Partly Cloudy,210,2013-06-27 00:58:00
8:28 PM,84.2,75.2,74,29.98,10.0,SSW,10.4,-,N/A,,Mostly Cloudy,210,2013-06-27 01:28:00
8:33 PM,84.2,75.2,74,29.98,10.0,SW,11.5,-,N/A,,Mostly Cloudy,220,2013-06-27 01:33:00
8:58 PM,84.4,75.6,75,29.99,10.0,SSW,11.5,-,N/A,,Mostly Cloudy,210,2013-06-27 01:58:00
9:58 PM,83.5,75.9,78,30.01,10.0,SW,10.4,-,N/A,,Clear,230,2013-06-27 02:58:00
10:58 PM,83.5,75.7,77,30.02,10.0,SSW,12.7,-,N/A,,Partly Cloudy,210,2013-06-27 03:58:00
11:33 PM,82.4,75.2,79,30.02,10.0,SW,9.2,-,N/A,,Mostly Cloudy,220,2013-06-27 04:33:00
11:38 PM,82.4,75.2,79,30.02,10.0,SW,10.4,-,N/A,,Scattered Clouds,220,2013-06-27 04:38:00
11:58 PM,83.1,75.6,78,30.03,10.0,SW,10.4,-,N/A,,Partly Cloudy,220,2013-06-27 04:58:00